Location: Wiesbaden
(50.0830°N, 8.2500°E)
Time: 06:51:21
(UTC+01:00)

ISS - Pass Details

Date: 09 December 2019
Orbit: 411 x 421 km, 51.6° (Epoch: 15 December)

Event Time Altitude Azimuth Distance (km) Brightness Sun altitude
Rises 17:35:05 0° 287° (WNW) 2,358 0.9 -10.6°
Reaches altitude 10° 17:37:13 10° 281° (W) 1,495 0.0 -10.9°
Maximum altitude 17:40:26 44° 208° (SSW) 591 -2.6 -11.4°
Drops below altitude 10° 17:43:39 10° 135° (SE) 1,494 -1.2 -11.9°
Enters shadow 17:45:10 - 130° (SE) 2,106 -0.5 -12.1°
